User: anonymous   Login
Location: ScottNC Observatory
(36.0892°N, 80.4832°W)
Time: 16:05:43
(UTC-04:00)
Language:

MOZHAYETS 4 - Orbit

View from above orbital plane
View from above orbital plane
View from above satellite
View from above satellite

Ground track
Ground track

The orbit data is extracted from the following two-line orbital elements,

1 27939U 03042A   19113.42753372  .00000112  00000-0  28602-4 0  9993
2 27939  98.0304 250.3712 0011688 242.0688 117.9350 14.66771451832292
Epoch (UTC): 23 April 2019 10:15:38
Eccentricity: 0.0011688
inclination: 98.0304°
perigee height: 663 km
apogee height: 679 km
right ascension of ascending node: 250.3712°
argument of perigee: 242.0688°
revolutions per day: 14.66771451
mean anomaly at epoch: 117.9350°
orbit number at epoch: 83229

The dashed part of the orbit path shows where the satellite is in the earth's shadow,  

DLR